[Iaude] MPEC B85: 2024 AN6 [a=2.45,e=0.68,i=6.6,H=19.8]
    mpec at marsden.cfa.harvard.edu 
    mpec at marsden.cfa.harvard.edu
       
    Sun Jan 21 10:19:59 EST 2024
    
    
  
M.P.E.C. 2024-B85                              Issued 2024 January 21, 15:17 UT
     The Minor Planet Electronic Circulars contain information on unusual
         minor planets, routine data on comets and natural satellites,
         and occasional editorial announcements.  They are published
    on behalf of Division F of the International Astronomical Union by the
          Minor Planet Center, Smithsonian Astrophysical Observatory,
                          Cambridge, MA 02138, U.S.A.
			  
             Prepared using the Tamkin Foundation Computer Network
                              MPC at CFA.HARVARD.EDU
            URL https://www.minorplanetcenter.net/    ISSN 1523-6714
                                    2024 AN6                                    
Observations:
     K24A06N*1C2024 01 13.53571913 02 06.090+05 52 57.86         20.91GVEB085G96
     K24A06N 1C2024 01 13.54182013 02 07.843+05 52 50.16         20.86GVEB085G96
     K24A06N 1C2024 01 13.54795113 02 09.586+05 52 43.14         20.81GVEB085G96
     K24A06N 1C2024 01 13.55405713 02 11.328+05 52 35.87         21.21GVEB085G96
     K24A06N 1C2024 01 13.56100313 02 13.330+05 52 28.80         21.08GVEB085G96
     K24A06N 1C2024 01 13.56141913 02 13.440+05 52 28.50         21.86GVEB085G96
     K24A06N 1C2024 01 13.56183413 02 13.560+05 52 27.50         20.62GVEB085G96
     K24A06N KC2024 01 14.51618513 06 54.972+05 34 04.51         20.79GVEB085V06
     K24A06N KC2024 01 14.51850713 06 55.645+05 34 01.52         20.88GVEB085V06
     K24A06N KC2024 01 14.52082713 06 56.351+05 33 58.90         21.06GVEB085V06
     K24A06N KC2024 01 14.52315013 06 57.042+05 33 55.76         21.47GVEB085V06
     K24A06N KC2024 01 15.41902513 11 27.474+05 16 11.86         20.86GVEB085V06
     K24A06N KC2024 01 15.42205713 11 28.406+05 16 08.58         21.12GVEB085V06
     K24A06N KC2024 01 15.42508813 11 29.299+05 16 04.94         20.93GVEB085V06
     K24A06N KC2024 01 15.42811513 11 30.210+05 16 00.98         21.22GVEB085V06
     K24A06N hC2024 01 16.12877113 15 05.33 +05 01 48.1          21.6 GVEB085L01
     K24A06N hC2024 01 16.13213413 15 06.33 +05 01 43.5          21.5 GVEB085L01
     K24A06N hC2024 01 16.13549613 15 07.35 +05 01 39.2          21.6 GVEB085L01
     K24A06N pC2024 01 16.13892713 15 08.45 +05 01 34.7          21.1 GVEB085L01
     K24A06N pC2024 01 16.14325613 15 09.72 +05 01 29.3          21.1 GVEB085L01
     K24A06N KC2024 01 17.41402013 21 50.03 +04 35 02.1          21.4 GVEB085H21
     K24A06N KC2024 01 17.41681613 21 50.90 +04 34 58.3          21.4 GVEB085H21
     K24A06N KC2024 01 17.42240713 21 52.68 +04 34 51.8          21.0 GVEB085H21
     K24A06N KC2024 01 17.48663413 22 13.271+04 33 30.82         21.24GVEB085V06
     K24A06N KC2024 01 17.48994213 22 14.293+04 33 26.10         20.81GVEB085V06
     K24A06N KC2024 01 17.49221013 22 14.984+04 33 23.36         20.94GVEB085V06
     K24A06N 1C2024 01 19.18461 13 31 28.59 +03 56 27.8          20.6 VXEB085033
     K24A06N 1C2024 01 19.18663 13 31 29.30 +03 56 24.9          20.6 VXEB085033
     K24A06N 1C2024 01 20.16795 13 37 00.99 +03 34 12.1          20.2 VXEB085033
     K24A06N 1C2024 01 20.17107 13 37 02.03 +03 34 08.0          20.3 VXEB085033
     K24A06N 1C2024 01 20.21443 13 37 16.94 +03 33 08.6          20.9 VXEB085033
     K24A06N 1C2024 01 20.21599 13 37 17.41 +03 33 06.5          21.0 VXEB085033
     K24A06N 1C2024 01 20.21756 13 37 17.97 +03 33 04.6          21.1 VXEB085033
Observer details:
033 Karl Schwarzschild Observatory, Tautenburg.  Observers S. Melnikov, C.
    Hogner, F. Ludwig, M. Hartmann, B. Stecklum.  Measurer B. Stecklum.
    1.34-m f/3 Schmidt + CCD.
G96 Mt. Lemmon Survey.  Observer H. Groeller.  Measurers T. Beuden, V. F.
    Carvajal, D. Fay, J. B. Fazekas, D. C. Fuls, A. R. Gibbs, A. D. Grauer, H.
    Groeller, J. K. Hogan, R. A. Kowalski, S. M. Larson, G. J. Leonard, D.
    Rankin, R. L. Seaman, F. C. Shelly, K. W. Wierzchos.  1.5-m reflector +
    10K CCD.
H21 Astronomical Research Observatory, Westfield.  Observer R. Holmes.
    Measurers T. Linder, R. Holmes, L. Horn.  0.76-m f/3.0 astrograph + CCD.
L01 Visnjan Observatory, Tican.  Observer K. Korlevic.  1.0-m f/2.9 reflector
    + CCD.
V06 Catalina Sky Survey-Kuiper.  Observers K. W. Wierzchos, G. J. Leonard.
    Measurers T. Beuden, V. F. Carvajal, D. Fay, J. B. Fazekas, D. C. Fuls, A.
    R. Gibbs, A. D. Grauer, H. Groeller, J. K. Hogan, R. A. Kowalski, S. M.
    Larson, G. J. Leonard, D. Rankin, R. L. Seaman, F. C. Shelly, K. W.
    Wierzchos.  1.55-m reflector + 1K CCD.
Orbital elements:
2024 AN6                                                 Earth MOID = 0.0719 AU
Epoch 2023 Sept. 13.0 TT = JDT 2460200.5                Veres                   
M 310.68629              (2000.0)            P               Q                  
n   0.25651978     Peri.  154.43768     -0.61648771     +0.77932497             
a   2.4531389      Node    77.29855     -0.74070174     -0.52568948             
e   0.6815761      Incl.    6.60622     -0.26702779     -0.34103250             
P   3.84           H   19.83          G   0.15           U   9                  
Residuals in seconds of arc
240113 G96  0.2+  0.5+    240115 V06  0.1+  0.2-    240117 H21  0.1+  0.5+
240113 G96  0.3+  0.2-    240115 V06  0.4+  0.1+    240117 V06  0.2+  0.0
240113 G96  0.1+  0.2-    240115 V06  0.1+  0.1+    240117 V06  0.1-  0.5-
240113 G96  0.1-  0.5-    240115 V06  0.0   0.2-    240117 V06  0.5-  0.4-
240113 G96  0.1+  0.3+    240116 L01  0.3+  0.5+    240119 033  0.0   0.2+
240113 G96  0.0   0.5+    240116 L01  0.1-  0.1+    240119 033  0.6+  0.0
240113 G96  0.0   0.0     240116 L01  0.2-  0.1-    240120 033  1.6-  0.3-
240114 V06  0.3-  0.3+    240116 L01  0.5+  0.4-    240120 033  1.9-  0.1-
240114 V06  0.4-  0.1+    240116 L01  0.4-  0.5-    240120 033  1.6+  0.2+
240114 V06  0.0   0.2+    240117 H21  0.1+  0.2+    240120 033  0.7+  0.3+
240114 V06  0.1+  0.3-    240117 H21  0.1-  0.1-    240120 033  1.1+  0.5+
Ephemeris:
2024 AN6                 a,e,i = 2.45, 0.68, 7                   q = 0.7811
Date    TT    R. A. (2000) Decl.     Delta      r    Elong.  Phase     V
2023 12 22    11 35 45.2 +11 17 59   1.0074  1.5196    99.5    39.7    22.3
...
2024 01 06    12 28 34.5 +08 02 15   0.7774  1.3676   101.3    44.8    21.7
...
2024 01 14    13 04 21.7 +05 44 11   0.6725  1.2858   100.2    48.8    21.3
...
2024 01 20    13 36 03.3 +03 38 15   0.6047  1.2246    98.0    52.7    21.1
2024 01 21    13 41 48.3 +03 15 06   0.5945  1.2144    97.5    53.4    21.1
2024 01 22    13 47 41.7 +02 51 18   0.5846  1.2043    97.0    54.2    21.0
...
2024 01 28    14 26 06.5 +00 15 02   0.5327  1.1438    93.0    59.3    20.9
...
2024 02 05    15 25 18.8 -03 42 34   0.4870  1.0653    85.6    67.3    20.8
...
2024 02 20    17 29 09.0 -10 45 40   0.4858  0.9305    68.8    82.1    21.0
M. P. C. Staff               (C) Copyright 2024 MPC           M.P.E.C. 2024-B85
    
    
More information about the Iaude
mailing list